No particular awareness of the weather is required.    There are no Weather-warnings


Meteo18 Weather Cam more information Meteo18 Weather Cam


Thunder radar more information blitzortung!


Rain radar more information rain snow radar


Visit our other weather sites:

Template documentation
and downloads

And another site



Weather Underground History page Text

Daily Summary for February 12, 2017 Units:  English    Metric   Both
« Previous Day
Next Day »
Daily Weekly Monthly Yearly Custom
  High: Low: Average:
Temperature: TemperatureC °F -0.4 °F 5 °F
Dew Point: DewpointC °F -2.3 °F 2.5 °F
Humidity: Humidity % 66 % 84 %
Wind Speed: WindSpeedKMH mph 0.0 mph 7.1 mph
Wind Gust: WindSpeedGustKMH mph - -
Wind:- - East
Pressure: PressurehPa in 1016.1 in -
Precipitation: 2.0 in    
Historical Graphs
 
 
Tabular Data for February 12, 2017
Time Temperature Dew Point Pressure Wind Wind Speed Wind Gust Humidity Rainfall Rate (Hourly)
TemperatureC °F DewpointC °F PressurehPa in Calm     Humidity % HourlyPrecipMM in
00:02 0.1 °F -2.3 °F 1018.2 in NNE 6.4 mph 14.5 mph 84 % 0.0 in
00:12 0.1 °F -2.3 °F 1018.2 in NE 8.0 mph 12.9 mph 84 % 0.0 in
00:17 0.2 °F -2.2 °F 1018.2 in NE 8.0 mph 12.9 mph 84 % 0.0 in
00:22 0.2 °F -2.2 °F 1018.2 in NE 6.4 mph 12.9 mph 84 % 0.0 in
00:32 0.2 °F -2.2 °F 1018.2 in NNE 4.8 mph 12.9 mph 84 % 0.0 in
00:37 0.2 °F -2.2 °F 1018.2 in North 8.0 mph 12.9 mph 84 % 0.0 in
00:42 0.2 °F -2.2 °F 1018.2 in NNE 9.7 mph 12.9 mph 84 % 0.0 in
00:47 0.2 °F -2.2 °F 1018.2 in NE 9.7 mph 14.5 mph 84 % 0.0 in
00:52 0.2 °F -2.2 °F 1018.2 in NE 6.4 mph 16.1 mph 84 % 0.0 in
00:57 0.2 °F -2.2 °F 1018.2 in NE 8.0 mph 16.1 mph 84 % 0.0 in
01:02 0.2 °F -2.2 °F 1018.2 in NNE 6.4 mph 14.5 mph 84 % 0.0 in
01:12 0.2 °F -2.2 °F 1018.2 in NE 3.2 mph 16.1 mph 84 % 0.0 in
01:17 0.1 °F -2.1 °F 1018.2 in NE 8.0 mph 16.1 mph 85 % 0.0 in
01:22 0.1 °F -2.1 °F 1018.2 in NE 6.4 mph 16.1 mph 85 % 0.0 in
01:27 0.1 °F -2.1 °F 1018.2 in NE 6.4 mph 14.5 mph 85 % 0.0 in
01:32 0.0 °F -2.1 °F 1018.2 in North 9.7 mph 14.5 mph 86 % 0.0 in
01:42 -0.1 °F -2.0 °F 1017.8 in NE 8.0 mph 16.1 mph 87 % 0.0 in
01:47 -0.2 °F -1.9 °F 1017.8 in NE 6.4 mph 16.1 mph 88 % 0.0 in
01:52 -0.3 °F -1.9 °F 1017.8 in NE 6.4 mph 14.5 mph 89 % 0.0 in
01:57 -0.4 °F -2.0 °F 1018.2 in North 3.2 mph 16.1 mph 89 % 0.0 in
02:02 -0.4 °F -2.0 °F 1017.8 in NNE 12.9 mph 16.1 mph 89 % 0.0 in
02:07 -0.4 °F -2.0 °F 1017.8 in NE 12.9 mph 16.1 mph 89 % 0.0 in
02:17 -0.4 °F -2.0 °F 1017.8 in NE 12.9 mph 16.1 mph 89 % 0.0 in
02:22 -0.3 °F -1.9 °F 1017.8 in NNW 8.0 mph 16.1 mph 89 % 0.0 in
02:32 -0.3 °F -1.9 °F 1017.8 in North 8.0 mph 17.7 mph 89 % 0.0 in
02:37 -0.3 °F -1.9 °F 1017.8 in NNE 9.7 mph 19.3 mph 89 % 0.0 in
02:42 -0.3 °F -1.9 °F 1017.8 in NE 14.5 mph 19.3 mph 89 % 0.0 in
02:52 -0.2 °F -1.8 °F 1017.8 in NE 17.7 mph 19.3 mph 89 % 0.0 in
02:57 -0.2 °F -1.6 °F 1017.8 in NW 3.2 mph 20.9 mph 90 % 0.0 in
03:02 -0.2 °F -1.8 °F 1017.8 in North 12.9 mph 20.9 mph 89 % 0.0 in
03:12 -0.3 °F -1.7 °F 1017.8 in NNE 4.8 mph 20.9 mph 90 % 0.0 in
03:22 -0.3 °F -1.7 °F 1017.5 in NNE 11.3 mph 20.9 mph 90 % 0.0 in
03:27 -0.3 °F -1.6 °F 1017.5 in NNE 19.3 mph 25.7 mph 91 % 0.0 in
03:32 -0.3 °F -1.6 °F 1017.5 in NE 12.9 mph 25.7 mph 91 % 0.0 in
03:37 -0.3 °F -1.6 °F 1017.8 in North 11.3 mph 25.7 mph 91 % 0.0 in
03:42 -0.3 °F -1.6 °F 1017.8 in NE 14.5 mph 25.7 mph 91 % 0.0 in
03:47 -0.3 °F -1.6 °F 1017.8 in NNE 8.0 mph 20.9 mph 91 % 0.0 in
03:52 -0.3 °F -1.4 °F 1017.8 in NNE 12.9 mph 19.3 mph 92 % 0.0 in
04:02 -0.4 °F -1.5 °F 1017.8 in NE 12.9 mph 19.3 mph 92 % 0.0 in
04:12 -0.4 °F -1.4 °F 1017.5 in NE 12.9 mph 17.7 mph 93 % 0.0 in
04:17 -0.4 °F -1.4 °F 1017.5 in NNE 11.3 mph 22.5 mph 93 % 0.0 in
04:22 -0.4 °F -1.4 °F 1017.2 in NE 11.3 mph 22.5 mph 93 % 0.3 in
04:27 -0.3 °F -1.3 °F 1017.2 in NNE 9.7 mph 22.5 mph 93 % 0.3 in
04:32 -0.3 °F -1.3 °F 1017.5 in NNE 12.9 mph 19.3 mph 93 % 0.3 in
04:37 -0.3 °F -1.3 °F 1017.5 in NNE 11.3 mph 17.7 mph 93 % 0.5 in
04:42 -0.3 °F -1.3 °F 1017.2 in NE 14.5 mph 17.7 mph 93 % 0.8 in
04:47 -0.3 °F -1.1 °F 1017.2 in NE 11.3 mph 17.7 mph 94 % 0.8 in
04:52 -0.3 °F -1.1 °F 1017.2 in NNE 9.7 mph 17.7 mph 94 % 0.8 in
04:57 -0.3 °F -1.1 °F 1017.2 in ENE 9.7 mph 19.3 mph 94 % 0.8 in
05:02 -0.3 °F -1.1 °F 1017.2 in NNE 12.9 mph 19.3 mph 94 % 0.8 in
05:07 -0.3 °F -1.1 °F 1017.2 in NE 11.3 mph 17.7 mph 94 % 0.8 in
05:12 -0.3 °F -1.1 °F 1017.2 in NE 14.5 mph 17.7 mph 94 % 0.8 in
05:17 -0.3 °F -1.0 °F 1017.2 in North 6.4 mph 17.7 mph 95 % 0.5 in
05:27 -0.2 °F -0.9 °F 1017.2 in ENE 6.4 mph 19.3 mph 95 % 0.5 in
05:32 -0.2 °F -0.9 °F 1017.2 in NNE 8.0 mph 19.3 mph 95 % 0.5 in
05:37 -0.2 °F -0.9 °F 1017.2 in NNE 11.3 mph 17.7 mph 95 % 0.3 in
05:42 -0.2 °F -0.9 °F 1017.2 in NE 11.3 mph 17.7 mph 95 % 0.3 in
05:47 -0.2 °F -0.9 °F 1017.2 in NE 6.4 mph 17.7 mph 95 % 0.0 in
05:52 -0.2 °F -0.9 °F 1017.2 in NNE 8.0 mph 17.7 mph 95 % 0.0 in
05:57 -0.1 °F -0.8 °F 1017.2 in ENE 8.0 mph 14.5 mph 95 % 0.0 in
06:02 -0.1 °F -0.8 °F 1017.2 in NNE 4.8 mph 14.5 mph 95 % 0.0 in
06:07 -0.1 °F -0.8 °F 1017.2 in NNE 12.9 mph 14.5 mph 95 % 0.0 in
06:12 0.0 °F -0.7 °F 1017.2 in North 6.4 mph 14.5 mph 95 % 0.0 in
06:17 0.0 °F -0.7 °F 1017.2 in NNE 9.7 mph 14.5 mph 95 % 0.0 in
06:22 0.1 °F -0.6 °F 1017.2 in North 4.8 mph 14.5 mph 95 % 0.0 in
06:27 0.1 °F -0.6 °F 1017.2 in NNE 6.4 mph 14.5 mph 95 % 0.0 in
06:32 0.1 °F -0.6 °F 1017.2 in NE 8.0 mph 11.3 mph 95 % 0.0 in
06:37 0.1 °F -0.6 °F 1017.2 in NE 1.6 mph 11.3 mph 95 % 0.0 in
06:42 0.1 °F -0.6 °F 1017.2 in North 3.2 mph 12.9 mph 95 % 0.0 in
06:47 0.2 °F -0.5 °F 1016.8 in NNE 9.7 mph 12.9 mph 95 % 0.0 in
06:52 0.2 °F -0.5 °F 1016.8 in NNW 6.4 mph 11.3 mph 95 % 0.0 in
06:57 0.2 °F -0.5 °F 1017.2 in NNE 4.8 mph 11.3 mph 95 % 0.0 in
07:02 0.2 °F -0.5 °F 1017.2 in NE 4.8 mph 12.9 mph 95 % 0.0 in
07:07 0.2 °F -0.4 °F 1017.2 in NNW 1.6 mph 12.9 mph 96 % 0.0 in
07:17 0.2 °F -0.4 °F 1017.2 in NE 4.8 mph 8.0 mph 96 % 0.0 in
07:22 0.2 °F -0.4 °F 1017.2 in ENE 4.8 mph 6.4 mph 96 % 0.0 in
07:37 0.3 °F -0.3 °F 1017.2 in North 1.6 mph 8.0 mph 96 % 0.0 in
07:42 0.3 °F -0.3 °F 1017.2 in NNW 1.6 mph 8.0 mph 96 % 0.0 in
07:47 0.3 °F -0.3 °F 1017.2 in NNE 4.8 mph 6.4 mph 96 % 0.0 in
07:52 0.3 °F -0.3 °F 1017.2 in NNE 3.2 mph 6.4 mph 96 % 0.0 in
07:57 0.3 °F -0.3 °F 1017.2 in Calm   4.8 mph 96 % 0.0 in
08:02 0.3 °F -0.3 °F 1017.2 in Calm   4.8 mph 96 % 0.0 in
08:12 0.4 °F -0.2 °F 1017.2 in NNE 3.2 mph 6.4 mph 96 % 0.0 in
08:17 0.4 °F -0.2 °F 1017.2 in NNE 1.6 mph 6.4 mph 96 % 0.0 in
08:22 0.4 °F -0.2 °F 1017.2 in NNE 1.6 mph 6.4 mph 96 % 0.0 in
08:32 0.4 °F -0.2 °F 1017.5 in North 3.2 mph 6.4 mph 96 % 0.0 in
08:37 0.5 °F -0.1 °F 1017.5 in NNE 3.2 mph 6.4 mph 96 % 0.0 in
08:42 0.5 °F -0.1 °F 1017.5 in NNE 1.6 mph 6.4 mph 96 % 0.0 in
08:47 0.6 °F 0.0 °F 1017.5 in NNE 1.6 mph 6.4 mph 96 % 0.0 in
08:52 0.6 °F 0.0 °F 1017.5 in Calm   6.4 mph 96 % 0.0 in
08:57 0.6 °F 0.0 °F 1017.5 in Calm   6.4 mph 96 % 0.0 in
09:02 0.7 °F 0.1 °F 1017.5 in North 1.6 mph 6.4 mph 96 % 0.0 in
09:12 0.8 °F 0.2 °F 1017.5 in Calm   3.2 mph 96 % 0.3 in
09:17 0.9 °F 0.5 °F 1017.5 in NE 1.6 mph 4.8 mph 97 % 0.3 in
09:22 0.9 °F 0.5 °F 1017.5 in NE 4.8 mph 4.8 mph 97 % 0.3 in
09:27 1.0 °F 0.6 °F 1017.5 in NNE 3.2 mph 4.8 mph 97 % 0.3 in
09:32 1.1 °F 0.7 °F 1017.5 in NNE 3.2 mph 6.4 mph 97 % 0.3 in
09:37 1.1 °F 0.7 °F 1017.5 in NNE 3.2 mph 6.4 mph 97 % 0.3 in
09:42 1.2 °F 0.8 °F 1017.5 in NE 1.6 mph 6.4 mph 97 % 0.3 in
09:52 1.3 °F 0.9 °F 1017.5 in NNE 3.2 mph 6.4 mph 97 % 0.3 in
09:57 1.4 °F 1.0 °F 1017.5 in ENE 4.8 mph 6.4 mph 97 % 0.5 in
10:02 1.6 °F 1.2 °F 1017.5 in NNW 3.2 mph 8.0 mph 97 % 0.5 in
10:12 1.9 °F 1.5 °F 1017.5 in NE 6.4 mph 8.0 mph 97 % 0.5 in
10:17 2.1 °F 1.7 °F 1017.5 in NNE 1.6 mph 9.7 mph 97 % 0.5 in
10:22 2.3 °F 1.9 °F 1017.2 in North 3.2 mph 16.1 mph 97 % 0.5 in
10:32 2.6 °F 2.2 °F 1017.5 in NE 3.2 mph 16.1 mph 97 % 0.8 in
10:37 2.8 °F 2.4 °F 1017.5 in NNW 3.2 mph 11.3 mph 97 % 0.8 in
10:42 3.1 °F 2.7 °F 1017.5 in North 1.6 mph 9.7 mph 97 % 0.8 in
10:52 3.4 °F 3.0 °F 1017.5 in NNE 8.0 mph 9.7 mph 97 % 1.0 in
10:57 3.5 °F 2.9 °F 1017.5 in ENE 3.2 mph 9.7 mph 96 % 0.8 in
11:02 3.8 °F 3.2 °F 1017.2 in NE 4.8 mph 12.9 mph 96 % 0.8 in
11:12 4.2 °F 3.6 °F 1017.2 in NE 3.2 mph 12.9 mph 96 % 0.5 in
11:17 4.3 °F 3.6 °F 1017.2 in NNE 3.2 mph 12.9 mph 95 % 0.5 in
11:22 4.3 °F 3.6 °F 1017.5 in NNE 1.6 mph 11.3 mph 95 % 0.3 in
11:27 4.2 °F 3.5 °F 1017.5 in ENE 8.0 mph 8.0 mph 95 % 0.3 in
11:32 4.4 °F 3.7 °F 1017.2 in NE 1.6 mph 11.3 mph 95 % 0.3 in
11:37 4.8 °F 4.2 °F 1017.2 in NE 3.2 mph 11.3 mph 96 % 0.3 in
11:42 5.1 °F 4.4 °F 1017.2 in East 6.4 mph 11.3 mph 95 % 0.3 in
11:47 5.4 °F 4.7 °F 1017.2 in NE 1.6 mph 12.9 mph 95 % 0.0 in
11:52 5.6 °F 4.7 °F 1017.2 in NNW 4.8 mph 12.9 mph 94 % 0.0 in
11:57 5.8 °F 4.9 °F 1017.2 in Calm   12.9 mph 94 % 0.0 in
12:02 6.1 °F 5.1 °F 1017.2 in NNE 4.8 mph 9.7 mph 93 % 0.0 in
12:12 6.8 °F 5.7 °F 1017.2 in ENE 9.7 mph 9.7 mph 93 % 0.0 in
12:17 7.1 °F 5.9 °F 1017.2 in ENE 6.4 mph 8.0 mph 92 % 0.0 in
12:22 7.2 °F 5.8 °F 1017.2 in ENE 3.2 mph 9.7 mph 91 % 0.0 in
12:27 7.4 °F 6.0 °F 1017.2 in NNE 1.6 mph 9.7 mph 91 % 0.0 in
12:32 7.5 °F 6.0 °F 1017.2 in NNE 6.4 mph 9.7 mph 90 % 0.0 in
12:37 7.6 °F 6.1 °F 1017.2 in ENE 1.6 mph 9.7 mph 90 % 0.0 in
12:42 7.7 °F 6.2 °F 1017.2 in ENE 4.8 mph 9.7 mph 90 % 0.0 in
12:52 8.1 °F 6.4 °F 1016.8 in ENE 4.8 mph 9.7 mph 89 % 0.0 in
12:57 8.3 °F 6.4 °F 1016.8 in NE 1.6 mph 9.7 mph 88 % 0.0 in
13:02 8.4 °F 6.7 °F 1016.8 in NNE 4.8 mph 9.7 mph 89 % 0.0 in
13:07 8.4 °F 6.7 °F 1016.8 in NE 3.2 mph 9.7 mph 89 % 0.0 in
13:12 8.5 °F 6.6 °F 1016.8 in ENE 4.8 mph 9.7 mph 88 % 0.0 in
13:17 8.6 °F 6.7 °F 1016.8 in NE 3.2 mph 9.7 mph 88 % 0.0 in
13:22 8.7 °F 7.0 °F 1016.8 in ENE 6.4 mph 9.7 mph 89 % 0.0 in
13:32 9.0 °F 7.1 °F 1016.8 in ENE 3.2 mph 8.0 mph 88 % 0.0 in
13:42 9.7 °F 7.1 °F 1016.8 in East 9.7 mph 11.3 mph 84 % 0.0 in
13:47 10.2 °F 7.3 °F 1016.5 in ESE 4.8 mph 14.5 mph 82 % 0.0 in
13:57 10.6 °F 7.5 °F 1016.5 in SE 9.7 mph 14.5 mph 81 % 0.0 in
14:02 10.8 °F 7.5 °F 1016.5 in SE 6.4 mph 12.9 mph 80 % 0.0 in
14:12 11.3 °F 7.4 °F 1016.5 in ESE 3.2 mph 20.9 mph 77 % 0.0 in
14:17 11.4 °F 6.9 °F 1016.5 in East 17.7 mph 20.9 mph 74 % 0.0 in
14:22 11.5 °F 7.0 °F 1016.5 in ENE 14.5 mph 20.9 mph 74 % 0.0 in
14:27 11.6 °F 7.3 °F 1016.5 in East 11.3 mph 20.9 mph 75 % 0.0 in
14:32 11.7 °F 7.2 °F 1016.1 in ENE 14.5 mph 20.9 mph 74 % 0.0 in
14:42 11.7 °F 6.8 °F 1016.1 in ESE 4.8 mph 22.5 mph 72 % 0.0 in
14:47 11.8 °F 7.3 °F 1016.1 in ENE 9.7 mph 22.5 mph 74 % 0.0 in
14:57 11.9 °F 6.8 °F 1016.1 in East 6.4 mph 16.1 mph 71 % 0.0 in
15:02 12.0 °F 6.9 °F 1016.1 in East 9.7 mph 16.1 mph 71 % 0.0 in
15:07 12.0 °F 6.7 °F 1016.1 in ESE 11.3 mph 20.9 mph 70 % 0.0 in
15:17 12.1 °F 6.6 °F 1016.1 in East 8.0 mph 20.9 mph 69 % 0.0 in
15:22 12.4 °F 7.1 °F 1016.1 in East 8.0 mph 16.1 mph 70 % 0.0 in
15:32 12.8 °F 7.0 °F 1016.1 in ENE 6.4 mph 14.5 mph 68 % 0.0 in
15:37 12.8 °F 6.6 °F 1016.1 in East 12.9 mph 17.7 mph 66 % 0.0 in
15:42 12.9 °F 7.6 °F 1016.1 in SE 3.2 mph 17.7 mph 70 % 0.0 in
15:47 13.1 °F 7.1 °F 1016.1 in East 14.5 mph 17.7 mph 67 % 0.0 in
15:52 12.9 °F 7.1 °F 1016.1 in East 9.7 mph 17.7 mph 68 % 0.0 in
15:57 12.9 °F 6.9 °F 1016.1 in ESE 8.0 mph 17.7 mph 67 % 0.0 in
16:02 12.8 °F 7.0 °F 1016.1 in East 9.7 mph 22.5 mph 68 % 0.0 in
16:07 12.8 °F 6.8 °F 1016.1 in ESE 8.0 mph 22.5 mph 67 % 0.0 in
16:12 12.8 °F 6.6 °F 1016.1 in East 12.9 mph 22.5 mph 66 % 0.0 in
16:17 12.8 °F 6.8 °F 1016.1 in East 4.8 mph 17.7 mph 67 % 0.0 in
16:22 12.8 °F 6.8 °F 1016.1 in East 11.3 mph 17.7 mph 67 % 0.0 in
16:32 12.7 °F 6.5 °F 1016.1 in East 8.0 mph 20.9 mph 66 % 0.0 in
16:42 12.5 °F 6.5 °F 1016.1 in ENE 9.7 mph 20.9 mph 67 % 0.0 in
16:52 12.4 °F 6.4 °F 1016.5 in East 14.5 mph 17.7 mph 67 % 0.0 in
16:57 12.4 °F 6.4 °F 1016.1 in ESE 6.4 mph 20.9 mph 67 % 0.0 in
17:02 12.3 °F 6.3 °F 1016.1 in East 8.0 mph 20.9 mph 67 % 0.0 in
17:07 12.2 °F 6.5 °F 1016.5 in East 4.8 mph 20.9 mph 68 % 0.0 in
17:12 12.2 °F 6.3 °F 1016.5 in ENE 8.0 mph 14.5 mph 67 % 0.0 in
17:17 12.2 °F 6.5 °F 1016.5 in ESE 8.0 mph 19.3 mph 68 % 0.0 in
17:22 12.1 °F 6.4 °F 1016.5 in SSE 6.4 mph 19.3 mph 68 % 0.0 in
17:32 12.1 °F 6.2 °F 1016.5 in East 9.7 mph 19.3 mph 67 % 0.0 in
17:42 12.0 °F 6.1 °F 1016.8 in SE 9.7 mph 12.9 mph 67 % 0.0 in
17:47 12.0 °F 5.8 °F 1016.8 in East 11.3 mph 17.7 mph 66 % 0.0 in
17:52 11.9 °F 5.7 °F 1016.8 in East 9.7 mph 17.7 mph 66 % 0.0 in
17:57 11.8 °F 5.9 °F 1016.8 in East 8.0 mph 17.7 mph 67 % 0.0 in
18:02 11.8 °F 5.9 °F 1016.8 in East 8.0 mph 16.1 mph 67 % 0.0 in
18:12 11.6 °F 5.7 °F 1016.8 in East 6.4 mph 16.1 mph 67 % 0.0 in
18:17 11.6 °F 5.9 °F 1016.8 in ESE 11.3 mph 16.1 mph 68 % 0.0 in
18:22 11.4 °F 5.7 °F 1017.2 in ENE 4.8 mph 16.1 mph 68 % 0.0 in
18:27 11.3 °F 5.6 °F 1016.8 in ENE 12.9 mph 16.1 mph 68 % 0.0 in
18:32 11.4 °F 5.7 °F 1016.8 in ENE 6.4 mph 17.7 mph 68 % 0.0 in
18:37 11.3 °F 5.8 °F 1017.2 in East 8.0 mph 17.7 mph 69 % 0.0 in
18:42 11.2 °F 5.7 °F 1016.8 in East 11.3 mph 17.7 mph 69 % 0.0 in
18:47 11.3 °F 5.6 °F 1017.2 in East 9.7 mph 27.4 mph 68 % 0.0 in
18:52 11.4 °F 5.5 °F 1016.8 in ESE 12.9 mph 27.4 mph 67 % 0.0 in
19:02 11.1 °F 5.6 °F 1017.2 in ENE 11.3 mph 24.1 mph 69 % 0.0 in
19:07 10.8 °F 5.5 °F 1017.2 in ENE 12.9 mph 20.9 mph 70 % 0.0 in
19:12 10.6 °F 5.6 °F 1017.2 in ENE 8.0 mph 16.1 mph 71 % 0.0 in
19:17 10.5 °F 5.5 °F 1017.2 in ENE 11.3 mph 19.3 mph 71 % 0.0 in
19:22 10.4 °F 5.6 °F 1017.2 in East 14.5 mph 19.3 mph 72 % 0.0 in
19:32 10.6 °F 5.6 °F 1017.5 in ENE 14.5 mph 16.1 mph 71 % 0.0 in
19:37 10.6 °F 5.4 °F 1017.5 in East 9.7 mph 16.1 mph 70 % 0.0 in
19:42 10.6 °F 5.6 °F 1017.5 in ENE 11.3 mph 16.1 mph 71 % 0.0 in
19:52 10.3 °F 5.3 °F 1017.5 in ENE 11.3 mph 16.1 mph 71 % 0.0 in
19:57 10.2 °F 5.4 °F 1017.5 in East 6.4 mph 16.1 mph 72 % 0.0 in
20:02 10.0 °F 5.4 °F 1017.5 in ENE 6.4 mph 16.1 mph 73 % 0.0 in
20:12 9.7 °F 5.1 °F 1017.5 in ENE 8.0 mph 12.9 mph 73 % 0.0 in
20:22 9.7 °F 5.3 °F 1017.5 in ENE 6.4 mph 16.1 mph 74 % 0.0 in
20:27 9.5 °F 5.1 °F 1017.5 in ENE 8.0 mph 16.1 mph 74 % 0.0 in
20:32 9.4 °F 5.2 °F 1017.5 in ENE 8.0 mph 12.9 mph 75 % 0.0 in
20:42 9.2 °F 5.0 °F 1017.5 in NE 8.0 mph 14.5 mph 75 % 0.0 in
20:47 9.2 °F 5.0 °F 1017.5 in ENE 8.0 mph 14.5 mph 75 % 0.0 in
20:52 9.2 °F 5.0 °F 1017.5 in ENE 1.6 mph 12.9 mph 75 % 0.0 in
20:57 9.1 °F 4.9 °F 1017.8 in NNE 3.2 mph 11.3 mph 75 % 0.0 in
21:02 9.1 °F 4.9 °F 1017.8 in ENE 11.3 mph 11.3 mph 75 % 0.0 in
21:12 9.1 °F 4.9 °F 1017.8 in ENE 3.2 mph 12.9 mph 75 % 0.0 in
21:17 9.0 °F 4.8 °F 1017.8 in ENE 4.8 mph 12.9 mph 75 % 0.0 in
21:27 8.8 °F 4.6 °F 1017.8 in ENE 6.4 mph 11.3 mph 75 % 0.0 in
21:32 8.8 °F 4.6 °F 1017.8 in ENE 1.6 mph 11.3 mph 75 % 0.0 in
21:42 8.7 °F 4.5 °F 1017.8 in NE 3.2 mph 11.3 mph 75 % 0.0 in
21:47 8.7 °F 4.5 °F 1017.8 in ENE 8.0 mph 11.3 mph 75 % 0.0 in
21:52 8.7 °F 4.7 °F 1017.8 in ENE 4.8 mph 11.3 mph 76 % 0.0 in
22:02 8.7 °F 4.5 °F 1017.8 in NE 3.2 mph 9.7 mph 75 % 0.0 in
Meteo18
Compliments of Weather Underground - 4 mb

Script developed by  Jim McMurry - jmcmurry@mwt.net Adapted for the template by  Wim van der Kuil - Leuven-Template.eu

You find our weather info also at:

European Weather Network

Weather Underground

Equipment we use:

Weather-station
Davis Vue

Weather-program
Meteobridge

Weather-server
Raspberry PI 2 B+

Provider
1 and 1

Davis Vue

Meteobridge

Raspberry PI 2 B+

1 and 1